Weather reports worldwide

Advertisment
Coleshill, United Kingdom (3535): temperature & dewpoint: 16.02.2019 21:00:00 - 22.02.2019 21:00:00 (GMT)Coleshill, United Kingdom (3535): temperature -20cm & temperature -100cm: 16.02.2019 21:00:00 - 22.02.2019 21:00:00 (GMT)Coleshill, United Kingdom (3535): wind speed & gusts: 16.02.2019 21:00:00 - 22.02.2019 21:00:00 (GMT)Coleshill, United Kingdom (3535): wind direction: 16.02.2019 21:00:00 - 22.02.2019 21:00:00 (GMT)Coleshill, United Kingdom (3535): reduced air pressure: 16.02.2019 21:00:00 - 22.02.2019 21:00:00 (GMT)Coleshill, United Kingdom (3535): visibility: 16.02.2019 21:00:00 - 22.02.2019 21:00:00 (GMT)Coleshill, United Kingdom (3535): precipitation: 16.02.2019 21:00:00 - 22.02.2019 21:00:00 (GMT)
Date & Time tt [°C] td [°C] tt -20cm [°C] tt -100cm [°C] ff [km/h] ff [kn] fx [km/h] fx [kn] dd ppp [hPa] vv [km] rr [mm]
22.02.2019 21:00:00 5,8 3,6 - - 4 2 - - S 1034,0 12 0,0
22.02.2019 20:00:00 7,6 4,6 - - 8 4 - - SSE 1033,9 17 0,0
22.02.2019 19:00:00 9,4 5,9 - - 9 5 - - S 1033,9 17 0,0
22.02.2019 18:00:00 10,7 6,2 - - 9 5 - - S 1033,8 25 0,0
22.02.2019 17:00:00 11,8 6,6 - - 15 8 - - ESE 1033,0 35 0,0
22.02.2019 16:00:00 13,2 6,9 - - 11 6 - - SE 1033,7 30 0,0
22.02.2019 15:00:00 14,2 7,4 - - 11 6 - - SSE 1033,8 25 0,0
22.02.2019 14:00:00 14,6 7,8 - - 9 5 - - SSE 1033,7 35 0,0
22.02.2019 13:00:00 11,9 7,2 - - 15 8 - - SSE 1034,2 26 0,0
22.02.2019 12:00:00 7,7 5,8 - - 11 6 - - S 1034,9 15 0,0
22.02.2019 11:00:00 6,6 6,4 - - 9 5 - - SSE 1035,0 8 0,0
22.02.2019 10:00:00 5,1 4,9 - - 8 4 - - S 1035,2 1,6 0,2
22.02.2019 09:00:00 4,3 4,1 7,0 6,7 8 4 - - SE 1034,9 0,2 0,0
22.02.2019 08:00:00 4,0 3,8 - - 8 4 - - SSW 1034,3 3,0 0,0
22.02.2019 07:00:00 3,3 3,0 - - 8 4 - - SSE 1032,7 3,9 0,0
22.02.2019 06:00:00 3,7 3,4 - - 4 2 - - SW 1032,6 2,1 0,0
22.02.2019 05:00:00 3,5 3,0 - - 2 1 - - SW 1032,5 0,2 0,0
22.02.2019 04:00:00 5,0 4,6 - - 5 3 - - S 1032,1 4,1 0,0
22.02.2019 03:00:00 5,4 5,0 - - 8 4 - - SSE 1032,1 3,9 0,0
22.02.2019 02:00:00 5,6 5,2 - - 5 3 - - S 1031,6 4,0 0,0
22.02.2019 01:00:00 6,3 5,8 - - 9 5 - - S 1031,3 5 0,0
22.02.2019 00:00:00 6,5 5,8 - - 5 3 - - S 1031,0 5 0,0
21.02.2019 23:00:00 7,4 6,5 - - 9 5 - - S 1030,6 9 0,0
21.02.2019 22:00:00 8,4 7,0 - - 11 6 - - S 1029,9 10 0,0
21.02.2019 21:00:00 8,9 7,1 - - 9 5 - - S 1029,4 11 0,0
21.02.2019 20:00:00 9,8 7,5 - - 9 5 - - S 1028,6 15 0,0
21.02.2019 19:00:00 10,7 7,7 - - 13 7 - - SSW 1027,9 16 0,0
21.02.2019 18:00:00 11,5 8,0 - - 9 5 - - S 1027,0 19 0,0
21.02.2019 17:00:00 13,2 8,8 - - 15 8 - - S 1026,2 22 0,0
21.02.2019 16:00:00 14,6 8,9 - - 15 8 - - SSW 1025,4 18 0,0
21.02.2019 15:00:00 16,1 9,1 - - 11 6 - - SW 1025,1 20 0,0
21.02.2019 14:00:00 15,8 9,1 - - 11 6 - - SW 1024,7 18 0,0
21.02.2019 13:00:00 14,6 8,5 - - 16 9 - - SSW 1024,8 26 0,0
21.02.2019 12:00:00 14,0 9,4 - - 15 8 - - SSW 1024,6 23 0,0
21.02.2019 11:00:00 12,2 9,2 - - 11 6 - - SW 1024,5 24 0,0
21.02.2019 10:00:00 11,8 9,4 - - 13 7 - - SW 1023,8 30 0,0
21.02.2019 09:00:00 10,4 8,7 6,7 6,7 13 7 - - SSW 1023,4 16 0,0
21.02.2019 08:00:00 9,5 8,2 - - 9 5 - - SSW 1022,7 16 0,0
21.02.2019 07:00:00 9,4 7,8 - - 15 8 - - SSW 1021,9 11 0,0
21.02.2019 06:00:00 9,3 7,6 - - 13 7 - - SSW 1021,3 20 0,0
21.02.2019 05:00:00 8,8 7,1 - - 15 8 - - SSW 1020,6 21 0,0
21.02.2019 04:00:00 9,1 7,2 - - 18 10 - - SSW 1020,5 25 0,0
21.02.2019 03:00:00 8,1 6,7 - - 16 9 - - S 1020,3 19 0,0
21.02.2019 02:00:00 9,0 7,0 - - 15 8 - - S 1020,7 19 0,0
21.02.2019 01:00:00 9,3 6,9 - - 9 5 - - SSE 1020,6 21 0,0
21.02.2019 00:00:00 9,2 6,9 - - 13 7 - - S 1020,2 26 0,0
20.02.2019 23:00:00 9,0 6,9 - - 13 7 - - SSW 1019,6 23 0,0
20.02.2019 22:00:00 9,1 6,9 - - 15 8 - - S 1019,2 23 0,0
20.02.2019 21:00:00 8,4 6,4 - - 9 5 - - S 1019,1 18 0,0
20.02.2019 20:00:00 8,8 6,4 - - 13 7 - - S 1018,8 20 0,0
20.02.2019 19:00:00 9,7 6,5 - - 21 11 - - SSW 1018,4 27 0,0
20.02.2019 18:00:00 10,2 6,3 - - 21 11 - - SSW 1017,7 22 0,0
20.02.2019 17:00:00 11,0 6,5 - - 16 9 - - S 1017,4 29 0,0
20.02.2019 16:00:00 11,1 6,0 - - 21 11 - - S 1017,4 30 0,0
20.02.2019 15:00:00 11,2 5,7 - - 22 12 - - SSW 1017,3 30 -
20.02.2019 14:00:00 11,1 5,7 - - 28 15 - - SSW 1017,2 24 -
20.02.2019 13:00:00 12,0 6,2 - - 26 14 - - SSW 1017,2 25 0,0
20.02.2019 12:00:00 10,3 6,2 - - 18 10 - - SSW 1017,6 22 0,0
20.02.2019 11:00:00 10,2 6,3 - - 24 13 - - SSW 1017,0 22 0,0
20.02.2019 10:00:00 9,7 6,5 - - 28 15 - - SSW 1016,6 23 0,0
20.02.2019 09:00:00 9,1 6,0 6,2 6,5 21 11 - - S 1016,0 23 0,0
20.02.2019 08:00:00 8,3 5,6 - - 22 12 - - S 1015,7 26 0,0
20.02.2019 07:00:00 8,2 5,7 - - 18 10 - - SSW 1015,3 21 0,0
20.02.2019 06:00:00 8,2 5,6 - - 18 10 - - SSW 1015,3 22 0,0
20.02.2019 05:00:00 7,9 5,4 - - 22 12 - - SSW 1015,0 27 0,0
20.02.2019 04:00:00 7,9 5,4 - - 21 11 - - SSW 1015,1 24 0,0
20.02.2019 03:00:00 7,8 5,4 - - 21 11 - - S 1015,4 24 0,0
20.02.2019 02:00:00 7,7 5,3 - - 22 12 - - S 1015,7 21 0,0
20.02.2019 01:00:00 7,5 5,2 - - 26 14 - - SSW 1015,8 18 0,0
20.02.2019 00:00:00 7,6 5,0 - - 24 13 - - SSW 1016,0 23 0,2
19.02.2019 23:00:00 7,6 4,8 - - 21 11 - - S 1016,2 17 0,0
19.02.2019 22:00:00 7,7 4,5 - - 15 8 - - S 1016,3 30 0,0
19.02.2019 21:00:00 7,6 4,3 - - 13 7 - - S 1016,3 30 0,0
19.02.2019 20:00:00 7,8 4,0 - - 15 8 - - S 1016,4 30 0,0
19.02.2019 19:00:00 8,2 3,7 - - 18 10 - - S 1016,5 45 0,0
19.02.2019 18:00:00 8,3 3,6 - - 11 6 - - S 1016,3 40 0,0
19.02.2019 17:00:00 8,6 3,9 - - 13 7 - - S 1016,2 40 0,0
19.02.2019 16:00:00 8,9 3,9 - - 15 8 - - SSW 1016,6 29 0,0
19.02.2019 15:00:00 8,4 4,4 - - 18 10 - - SSW 1016,9 30 0,0
19.02.2019 14:00:00 8,9 3,8 - - 16 9 - - SSW 1017,1 28 0,0
19.02.2019 13:00:00 8,7 3,6 - - 18 10 - - SSW 1017,3 30 0,0
19.02.2019 12:00:00 8,9 3,9 - - 15 8 - - SW 1017,6 25 0,0
19.02.2019 11:00:00 8,8 4,0 - - 15 8 - - SW 1017,7 17 0,0
19.02.2019 10:00:00 8,0 4,0 - - 13 7 - - SW 1017,6 20 0,0
19.02.2019 09:00:00 7,1 4,2 6,0 6,4 13 7 - - SSW 1017,3 18 0,0
19.02.2019 08:00:00 5,6 3,5 - - 15 8 - - SSW 1017,0 20 0,0
19.02.2019 07:00:00 4,2 2,9 - - 9 5 - - SSW 1016,4 17 0,0
19.02.2019 06:00:00 3,7 2,3 - - 11 6 - - S 1015,9 18 0,0
19.02.2019 05:00:00 3,8 2,5 - - 11 6 - - S 1015,5 17 0,0
19.02.2019 04:00:00 4,6 2,9 - - 11 6 - - S 1015,2 19 0,0
19.02.2019 03:00:00 4,8 3,1 - - 15 8 - - SSW 1015,1 16 0,0
19.02.2019 02:00:00 5,6 3,4 - - 15 8 - - SSW 1014,8 19 0,0
19.02.2019 01:00:00 5,9 3,4 - - 15 8 - - SW 1014,6 20 0,0
19.02.2019 00:00:00 5,9 3,3 - - 13 7 - - SW 1014,1 19 0,0
18.02.2019 23:00:00 6,3 3,3 - - 16 9 - - SSW 1013,8 18 0,0
18.02.2019 22:00:00 6,4 2,9 - - 15 8 - - SSW 1013,8 20 0,0
18.02.2019 21:00:00 7,0 2,7 - - 13 7 - - SW 1013,6 18 0,0
18.02.2019 20:00:00 7,1 2,7 - - 13 7 - - SW 1013,5 19 0,0
18.02.2019 19:00:00 7,7 2,1 - - 11 6 - - SW 1012,9 23 0,0
18.02.2019 18:00:00 7,9 3,1 - - 11 6 - - SSW 1012,4 29 0,0
18.02.2019 17:00:00 8,8 3,6 - - 9 5 - - SW 1012,1 22 0,0
18.02.2019 16:00:00 9,0 4,6 - - 16 9 - - SSW 1011,6 23 0,0
18.02.2019 15:00:00 8,8 5,0 - - 15 8 - - SSW 1011,5 35 0,0
18.02.2019 14:00:00 8,7 6,0 - - 13 7 - - SSW 1011,8 27 0,0
18.02.2019 13:00:00 8,5 6,7 - - 13 7 - - SW 1012,1 8 0,8
18.02.2019 12:00:00 10,0 6,0 - - 21 11 - - SSW 1012,1 16 0,0
18.02.2019 11:00:00 9,7 6,5 - - 21 11 - - SSW 1012,3 19 0,0
18.02.2019 10:00:00 8,2 6,3 - - 16 9 - - S 1012,4 16 0,0
18.02.2019 09:00:00 6,9 5,9 6,2 6,2 11 6 - - S 1012,7 12 0,0
18.02.2019 08:00:00 6,2 5,5 - - 13 7 - - S 1012,7 10 0,0
18.02.2019 07:00:00 6,2 5,4 - - 15 8 - - S 1012,2 10 0,0
18.02.2019 06:00:00 6,0 5,3 - - 13 7 - - S 1012,2 9 0,0
18.02.2019 05:00:00 6,2 5,5 - - 13 7 - - S 1012,4 8 0,0
18.02.2019 04:00:00 6,0 5,4 - - 8 4 - - S 1012,7 8 0,0
18.02.2019 03:00:00 5,8 5,0 - - 11 6 - - S 1013,0 9 0,0
18.02.2019 02:00:00 6,4 5,3 - - 13 7 - - S 1013,3 10 0,0
18.02.2019 01:00:00 6,7 5,6 - - 16 9 - - S 1013,4 10 0,0
18.02.2019 00:00:00 6,6 5,2 - - 11 6 - - S 1013,4 11 0,0
17.02.2019 23:00:00 7,5 5,6 - - 13 7 - - S 1013,2 11 0,0
17.02.2019 22:00:00 7,8 5,9 - - 15 8 - - S 1013,3 12 0,0
17.02.2019 21:00:00 8,3 6,1 - - 16 9 - - S 1012,9 12 0,0
17.02.2019 20:00:00 9,3 6,6 - - 16 9 - - S 1012,6 13 0,0
17.02.2019 19:00:00 9,7 7,1 - - 21 11 - - S 1012,3 14 0,0
17.02.2019 18:00:00 10,2 7,3 - - 9 5 - - S 1012,0 18 0,0
17.02.2019 17:00:00 11,2 6,9 - - 15 8 - - S 1011,4 24 0,0
17.02.2019 16:00:00 12,2 7,6 - - 21 11 - - SSW 1011,4 19 0,0
17.02.2019 15:00:00 12,0 7,4 - - 21 11 - - SSW 1011,5 25 0,0
17.02.2019 14:00:00 11,8 8,1 - - 21 11 - - SSW 1011,5 20 0,0
17.02.2019 13:00:00 12,2 8,4 - - 24 13 - - SSW 1011,5 14 0,0
17.02.2019 12:00:00 11,2 7,0 - - 22 12 46 25 SSW 1011,8 19 -
17.02.2019 11:00:00 10,5 6,5 - - 16 9 - - S 1012,0 14 -
17.02.2019 10:00:00 9,5 5,5 - - 22 12 - - S 1011,5 11 0,0
17.02.2019 09:00:00 8,0 5,4 6,0 6,0 13 7 - - SSE 1011,7 11 0,0
17.02.2019 08:00:00 6,4 5,1 - - 16 9 - - SSE 1012,2 7 0,0
17.02.2019 07:00:00 6,6 5,5 - - 15 8 - - SSE 1012,6 6 0,0
17.02.2019 06:00:00 6,8 5,8 - - 11 6 - - S 1013,1 6 0,0
17.02.2019 05:00:00 7,6 6,4 - - 16 9 - - SSE 1013,9 7 0,0
17.02.2019 04:00:00 8,8 7,4 - - 15 8 - - S 1014,5 9 0,0
17.02.2019 03:00:00 9,1 7,5 - - 16 9 - - S 1015,3 14 0,0
17.02.2019 02:00:00 8,7 7,1 - - 16 9 - - S 1016,2 17 0,0
17.02.2019 01:00:00 9,4 7,7 - - 16 9 - - S 1017,0 15 0,0
17.02.2019 00:00:00 9,3 7,9 - - 16 9 - - S 1017,9 12 0,0
16.02.2019 23:00:00 10,0 8,1 - - 22 12 - - S 1018,0 15 0,0
16.02.2019 22:00:00 10,9 8,6 - - 22 12 - - S 1018,4 18 0,0
16.02.2019 21:00:00 11,1 9,0 - - 16 9 - - S 1018,8 20 0,0

tt = temperature
td = dewpoint
tt -20cm = temperature -20cm
tt -100cm = temperature -100cm
ff = wind speed
fx = gusts
dd = wind direction
ppp = reduced air pressure
vv = visibility
rr = precipitation

Next stations